contact:dominique.lefevre@mio.osupytheas.fr, maurice.libes@osupytheas.fr, didier.mallarino@osupytheas.fr
Project:EMSO http://www.emso-fr.org/EMSO-France
Depth: 2436.0 m
Title:EMSO Ligure Ouest : Data MII capteur MICROCAT
DateTime_Computer,Latitude,Longitude,Temperature,Conductivity,Pressure,DateTime_Instrument
DateTime_Computer,Latitude,Longitude,degC,S m-1,dbar,DateTime_Instrument
2019-08-12T00:00:15Z,42.805,6.029,13.2968,4.59975,2469.83,2019-8-12T02:00:36Z
2019-08-12T00:03:18Z,42.805,6.029,13.2973,4.59975,2469.821,2019-8-12T02:03:39Z
2019-08-12T00:06:22Z,42.805,6.029,13.2963,4.59973,2469.806,2019-8-12T02:06:42Z
2019-08-12T00:09:25Z,42.805,6.029,13.2964,4.59970,2469.853,2019-8-12T02:09:45Z
2019-08-12T00:12:28Z,42.805,6.029,13.2966,4.59969,2469.867,2019-8-12T02:12:48Z
2019-08-12T00:15:31Z,42.805,6.029,13.2966,4.59970,2469.83,2019-8-12T02:15:52Z
2019-08-12T00:18:34Z,42.805,6.029,13.2964,4.59967,2469.867,2019-8-12T02:18:55Z
2019-08-12T00:21:37Z,42.805,6.029,13.2967,4.59966,2469.89,2019-8-12T02:21:58Z
2019-08-12T00:24:41Z,42.805,6.029,13.2971,4.59978,2469.83,2019-8-12T02:25:01Z
2019-08-12T00:27:44Z,42.805,6.029,13.2966,4.59974,2469.83,2019-8-12T02:28:04Z
2019-08-12T00:30:47Z,42.805,6.029,13.2965,4.59973,2469.83,2019-8-12T02:31:08Z
2019-08-12T00:33:50Z,42.805,6.029,13.2964,4.59971,2469.83,2019-8-12T02:34:11Z
2019-08-12T00:36:54Z,42.805,6.029,13.2967,4.59972,2469.867,2019-8-12T02:37:14Z
2019-08-12T00:39:57Z,42.805,6.029,13.2965,4.59969,2469.853,2019-8-12T02:40:17Z
2019-08-12T00:43:00Z,42.805,6.029,13.2962,4.59967,2469.83,2019-8-12T02:43:20Z
2019-08-12T00:46:03Z,42.805,6.029,13.2964,4.59968,2469.83,2019-8-12T02:46:24Z
2019-08-12T00:49:06Z,42.805,6.029,13.2961,4.59973,2469.839,2019-8-12T02:49:27Z
2019-08-12T00:52:10Z,42.805,6.029,13.2968,4.59981,2469.876,2019-8-12T02:52:30Z
2019-08-12T00:55:13Z,42.805,6.029,13.2966,4.59975,2469.867,2019-8-12T02:55:33Z
2019-08-12T00:58:16Z,42.805,6.029,13.2971,4.59968,2469.853,2019-8-12T02:58:36Z
2019-08-12T01:01:19Z,42.805,6.029,13.2964,4.59970,2469.806,2019-8-12T03:01:40Z
2019-08-12T01:04:22Z,42.805,6.029,13.2964,4.59968,2469.844,2019-8-12T03:04:43Z
2019-08-12T01:07:26Z,42.805,6.029,13.2974,4.59972,2469.876,2019-8-12T03:07:46Z
2019-08-12T01:10:29Z,42.805,6.029,13.2967,4.59978,2469.876,2019-8-12T03:10:49Z
2019-08-12T01:13:32Z,42.805,6.029,13.2966,4.59969,2469.867,2019-8-12T03:13:53Z
2019-08-12T01:16:35Z,42.805,6.029,13.2963,4.59980,2469.844,2019-8-12T03:16:56Z
2019-08-12T01:19:38Z,42.805,6.029,13.2966,4.59973,2469.806,2019-8-12T03:19:59Z
2019-08-12T01:22:42Z,42.805,6.029,13.2967,4.59979,2469.876,2019-8-12T03:23:02Z
2019-08-12T01:25:45Z,42.805,6.029,13.2966,4.59976,2469.83,2019-8-12T03:26:05Z
2019-08-12T01:28:48Z,42.805,6.029,13.2964,4.59971,2469.867,2019-8-12T03:29:08Z
2019-08-12T01:31:51Z,42.805,6.029,13.2972,4.59980,2469.844,2019-8-12T03:32:12Z
2019-08-12T01:34:55Z,42.805,6.029,13.2964,4.59971,2469.844,2019-8-12T03:35:15Z
2019-08-12T01:37:58Z,42.805,6.029,13.2971,4.59972,2469.867,2019-8-12T03:38:18Z
2019-08-12T01:41:01Z,42.805,6.029,13.2967,4.59971,2469.806,2019-8-12T03:41:22Z
2019-08-12T01:44:04Z,42.805,6.029,13.2967,4.59969,2469.853,2019-8-12T03:44:25Z
2019-08-12T01:47:08Z,42.805,6.029,13.2968,4.59973,2469.844,2019-8-12T03:47:28Z
2019-08-12T01:50:11Z,42.805,6.029,13.2971,4.59976,2469.876,2019-8-12T03:50:32Z
2019-08-12T01:53:14Z,42.805,6.029,13.2968,4.59986,2469.867,2019-8-12T03:53:35Z
2019-08-12T01:56:18Z,42.805,6.029,13.2964,4.59973,2469.867,2019-8-12T03:56:38Z
2019-08-12T01:59:21Z,42.805,6.029,13.2970,4.59976,2469.876,2019-8-12T03:59:42Z
2019-08-12T02:02:24Z,42.805,6.029,13.2966,4.59976,2469.853,2019-8-12T04:02:45Z
2019-08-12T02:05:28Z,42.805,6.029,13.2968,4.59976,2469.853,2019-8-12T04:05:48Z
2019-08-12T02:08:31Z,42.805,6.029,13.2969,4.59970,2469.853,2019-8-12T04:08:51Z
2019-08-12T02:11:34Z,42.805,6.029,13.2962,4.59981,2469.853,2019-8-12T04:11:55Z
2019-08-12T02:14:38Z,42.805,6.029,13.2975,4.59986,2469.867,2019-8-12T04:14:58Z
2019-08-12T02:17:41Z,42.805,6.029,13.2967,4.59981,2469.853,2019-8-12T04:18:01Z
2019-08-12T02:20:44Z,42.805,6.029,13.2968,4.59975,2469.876,2019-8-12T04:21:05Z
2019-08-12T02:23:48Z,42.805,6.029,13.2967,4.59976,2469.853,2019-8-12T04:24:08Z
2019-08-12T02:26:51Z,42.805,6.029,13.2970,4.59977,2469.853,2019-8-12T04:27:12Z
2019-08-12T02:29:54Z,42.805,6.029,13.2982,4.59981,2469.853,2019-8-12T04:30:15Z
2019-08-12T02:32:58Z,42.805,6.029,13.2982,4.59991,2469.867,2019-8-12T04:33:18Z
2019-08-12T02:36:01Z,42.805,6.029,13.2976,4.59998,2469.876,2019-8-12T04:36:21Z
2019-08-12T02:39:04Z,42.805,6.029,13.2967,4.59983,2469.914,2019-8-12T04:39:25Z
2019-08-12T02:42:08Z,42.805,6.029,13.2974,4.59993,2469.876,2019-8-12T04:42:28Z
2019-08-12T02:45:11Z,42.805,6.029,13.2976,4.59992,2469.853,2019-8-12T04:45:31Z
2019-08-12T02:48:14Z,42.805,6.029,13.2976,4.59997,2469.876,2019-8-12T04:48:35Z
2019-08-12T02:51:18Z,42.805,6.029,13.2974,4.59980,2469.876,2019-8-12T04:51:38Z
2019-08-12T02:54:21Z,42.805,6.029,13.2968,4.59992,2469.853,2019-8-12T04:54:41Z
2019-08-12T02:57:24Z,42.805,6.029,13.2979,4.59992,2469.876,2019-8-12T04:57:45Z
2019-08-12T03:00:27Z,42.805,6.029,13.2976,4.59987,2469.853,2019-8-12T05:00:48Z
2019-08-12T03:03:31Z,42.805,6.029,13.2976,4.59979,2469.853,2019-8-12T05:03:51Z
2019-08-12T03:06:34Z,42.805,6.029,13.2971,4.59987,2469.89,2019-8-12T05:06:54Z
2019-08-12T03:09:37Z,42.805,6.029,13.2970,4.59987,2469.876,2019-8-12T05:09:58Z
2019-08-12T03:12:41Z,42.805,6.029,13.2969,4.59988,2469.89,2019-8-12T05:13:01Z
2019-08-12T03:15:44Z,42.805,6.029,13.2965,4.59981,2469.853,2019-8-12T05:16:04Z
2019-08-12T03:18:47Z,42.805,6.029,13.2973,4.59977,2469.876,2019-8-12T05:19:08Z
2019-08-12T03:21:50Z,42.805,6.029,13.2967,4.60005,2469.89,2019-8-12T05:22:11Z
2019-08-12T03:24:54Z,42.805,6.029,13.3002,4.60000,2469.9,2019-8-12T05:25:14Z
2019-08-12T03:27:57Z,42.805,6.029,13.2967,4.60003,2469.876,2019-8-12T05:28:17Z
2019-08-12T03:31:00Z,42.805,6.029,13.2976,4.60004,2469.89,2019-8-12T05:31:21Z
2019-08-12T03:34:04Z,42.805,6.029,13.2971,4.59986,2469.89,2019-8-12T05:34:24Z
2019-08-12T03:37:07Z,42.805,6.029,13.2968,4.59979,2469.89,2019-8-12T05:37:27Z
2019-08-12T03:40:10Z,42.805,6.029,13.2974,4.59983,2469.863,2019-8-12T05:40:31Z
2019-08-12T03:43:13Z,42.805,6.029,13.2971,4.59997,2469.937,2019-8-12T05:43:34Z
2019-08-12T03:46:17Z,42.805,6.029,13.2990,4.59997,2469.89,2019-8-12T05:46:37Z
2019-08-12T03:49:20Z,42.805,6.029,13.2980,4.60007,2469.914,2019-8-12T05:49:40Z
2019-08-12T03:52:23Z,42.805,6.029,13.2982,4.59994,2469.914,2019-8-12T05:52:44Z
2019-08-12T03:55:27Z,42.805,6.029,13.2965,4.59987,2469.876,2019-8-12T05:55:47Z
2019-08-12T03:58:30Z,42.805,6.029,13.2990,4.60012,2469.89,2019-8-12T05:58:50Z
2019-08-12T04:01:33Z,42.805,6.029,13.2986,4.60015,2469.89,2019-8-12T06:01:54Z
2019-08-12T04:04:36Z,42.805,6.029,13.3004,4.59983,2469.9,2019-8-12T06:04:57Z
2019-08-12T04:07:40Z,42.805,6.029,13.2998,4.60029,2469.89,2019-8-12T06:08:00Z
2019-08-12T04:10:43Z,42.805,6.029,13.2984,4.60019,2469.9,2019-8-12T06:11:04Z
2019-08-12T04:13:46Z,42.805,6.029,13.2984,4.60011,2469.89,2019-8-12T06:14:07Z
2019-08-12T04:16:50Z,42.805,6.029,13.2981,4.60003,2469.9,2019-8-12T06:17:10Z
2019-08-12T04:19:53Z,42.805,6.029,13.2988,4.60006,2469.876,2019-8-12T06:20:13Z
2019-08-12T04:22:56Z,42.805,6.029,13.2990,4.60000,2469.89,2019-8-12T06:23:17Z
2019-08-12T04:26:00Z,42.805,6.029,13.2996,4.59992,2469.937,2019-8-12T06:26:20Z
2019-08-12T04:29:03Z,42.805,6.029,13.2996,4.60011,2469.914,2019-8-12T06:29:24Z
2019-08-12T04:32:06Z,42.805,6.029,13.2998,4.60036,2469.914,2019-8-12T06:32:27Z
2019-08-12T04:35:10Z,42.805,6.029,13.3013,4.60019,2469.937,2019-8-12T06:35:30Z
2019-08-12T04:38:13Z,42.805,6.029,13.2979,4.60037,2469.9,2019-8-12T06:38:33Z
2019-08-12T04:41:16Z,42.805,6.029,13.2979,4.59997,2469.914,2019-8-12T06:41:37Z
2019-08-12T04:44:20Z,42.805,6.029,13.2979,4.60003,2469.9,2019-8-12T06:44:40Z
2019-08-12T04:47:23Z,42.805,6.029,13.2995,4.60016,2469.9,2019-8-12T06:47:43Z
2019-08-12T04:50:26Z,42.805,6.029,13.3007,4.60045,2469.89,2019-8-12T06:50:47Z
2019-08-12T04:53:29Z,42.805,6.029,13.2997,4.60015,2469.914,2019-8-12T06:53:50Z
2019-08-12T04:56:33Z,42.805,6.029,13.2986,4.60020,2469.9,2019-8-12T06:56:53Z
2019-08-12T04:59:36Z,42.805,6.029,13.2989,4.60013,2469.923,2019-8-12T06:59:57Z
2019-08-12T05:02:40Z,42.805,6.029,13.2971,4.59991,2469.914,2019-8-12T07:03:00Z
2019-08-12T05:05:43Z,42.805,6.029,13.2976,4.60031,2469.876,2019-8-12T07:06:04Z
2019-08-12T05:08:46Z,42.805,6.029,13.3009,4.59992,2469.914,2019-8-12T07:09:07Z
2019-08-12T05:11:50Z,42.805,6.029,13.2988,4.59993,2469.914,2019-8-12T07:12:10Z
2019-08-12T05:14:53Z,42.805,6.029,13.2989,4.60014,2469.9,2019-8-12T07:15:13Z
2019-08-12T05:17:56Z,42.805,6.029,13.2992,4.60036,2469.914,2019-8-12T07:18:17Z
2019-08-12T05:21:00Z,42.805,6.029,13.3004,4.60026,2469.9,2019-8-12T07:21:20Z
2019-08-12T05:24:03Z,42.805,6.029,13.3005,4.60015,2469.9,2019-8-12T07:24:23Z
2019-08-12T05:27:06Z,42.805,6.029,13.2987,4.59998,2469.937,2019-8-12T07:27:27Z
2019-08-12T05:30:09Z,42.805,6.029,13.3007,4.60020,2469.9,2019-8-12T07:30:30Z
2019-08-12T05:33:13Z,42.805,6.029,13.2998,4.60015,2469.89,2019-8-12T07:33:33Z
2019-08-12T05:36:16Z,42.805,6.029,13.2996,4.59986,2469.914,2019-8-12T07:36:36Z
2019-08-12T05:39:19Z,42.805,6.029,13.2984,4.59995,2469.914,2019-8-12T07:39:40Z
2019-08-12T05:42:23Z,42.805,6.029,13.2998,4.60028,2469.876,2019-8-12T07:42:43Z
2019-08-12T05:45:26Z,42.805,6.029,13.3005,4.59998,2469.9,2019-8-12T07:45:46Z
2019-08-12T05:48:29Z,42.805,6.029,13.3000,4.60003,2469.876,2019-8-12T07:48:50Z
2019-08-12T05:51:32Z,42.805,6.029,13.2976,4.60028,2469.923,2019-8-12T07:51:53Z
2019-08-12T05:54:36Z,42.805,6.029,13.3000,4.59978,2469.9,2019-8-12T07:54:56Z
2019-08-12T05:57:39Z,42.805,6.029,13.2997,4.59987,2469.89,2019-8-12T07:58:00Z
2019-08-12T06:00:42Z,42.805,6.029,13.3002,4.60024,2469.876,2019-8-12T08:01:03Z
2019-08-12T06:03:46Z,42.805,6.029,13.2992,4.60014,2469.9,2019-8-12T08:04:06Z
2019-08-12T06:06:49Z,42.805,6.029,13.3001,4.59999,2469.914,2019-8-12T08:07:10Z
2019-08-12T06:09:52Z,42.805,6.029,13.3003,4.59992,2469.89,2019-8-12T08:10:13Z
2019-08-12T06:12:56Z,42.805,6.029,13.3014,4.59976,2469.876,2019-8-12T08:13:16Z
2019-08-12T06:15:59Z,42.805,6.029,13.2993,4.59994,2469.914,2019-8-12T08:16:19Z
2019-08-12T06:19:02Z,42.805,6.029,13.3009,4.59981,2469.9,2019-8-12T08:19:23Z
2019-08-12T06:22:06Z,42.805,6.029,13.3004,4.60003,2469.923,2019-8-12T08:22:26Z
2019-08-12T06:25:09Z,42.805,6.029,13.2998,4.59994,2469.89,2019-8-12T08:25:29Z
2019-08-12T06:28:12Z,42.805,6.029,13.2978,4.59997,2469.914,2019-8-12T08:28:33Z
2019-08-12T06:31:16Z,42.805,6.029,13.2998,4.59992,2469.914,2019-8-12T08:31:36Z
2019-08-12T06:34:19Z,42.805,6.029,13.2990,4.59987,2469.89,2019-8-12T08:34:39Z
2019-08-12T06:37:22Z,42.805,6.029,13.2986,4.59986,2469.89,2019-8-12T08:37:43Z
2019-08-12T06:40:25Z,42.805,6.029,13.2986,4.59988,2469.853,2019-8-12T08:40:46Z
2019-08-12T06:43:29Z,42.805,6.029,13.2997,4.60013,2469.876,2019-8-12T08:43:49Z
2019-08-12T06:46:32Z,42.805,6.029,13.3006,4.59994,2469.876,2019-8-12T08:46:53Z
2019-08-12T06:49:35Z,42.805,6.029,13.2986,4.60011,2469.867,2019-8-12T08:49:56Z
2019-08-12T06:52:39Z,42.805,6.029,13.3020,4.59985,2469.914,2019-8-12T08:52:59Z
2019-08-12T06:55:42Z,42.805,6.029,13.3006,4.60014,2469.89,2019-8-12T08:56:02Z
2019-08-12T06:58:45Z,42.805,6.029,13.3013,4.59983,2469.876,2019-8-12T08:59:06Z
2019-08-12T07:01:49Z,42.805,6.029,13.2987,4.59988,2469.89,2019-8-12T09:02:09Z
2019-08-12T07:04:52Z,42.805,6.029,13.2995,4.59976,2469.89,2019-8-12T09:05:12Z
2019-08-12T07:07:55Z,42.805,6.029,13.3004,4.59982,2469.876,2019-8-12T09:08:16Z
2019-08-12T07:10:59Z,42.805,6.029,13.2989,4.59985,2469.89,2019-8-12T09:11:19Z
2019-08-12T07:14:02Z,42.805,6.029,13.2991,4.59980,2469.853,2019-8-12T09:14:22Z
2019-08-12T07:17:05Z,42.805,6.029,13.3004,4.59985,2469.853,2019-8-12T09:17:26Z
2019-08-12T07:20:09Z,42.805,6.029,13.3002,4.60001,2469.876,2019-8-12T09:20:29Z
2019-08-12T07:23:12Z,42.805,6.029,13.3004,4.59996,2469.937,2019-8-12T09:23:32Z
2019-08-12T07:26:15Z,42.805,6.029,13.3026,4.59981,2469.853,2019-8-12T09:26:35Z
2019-08-12T07:29:18Z,42.805,6.029,13.2991,4.60006,2469.876,2019-8-12T09:29:39Z
2019-08-12T07:32:21Z,42.805,6.029,13.3027,4.59998,2469.89,2019-8-12T09:32:42Z
2019-08-12T07:35:25Z,42.805,6.029,13.3024,4.59983,2469.853,2019-8-12T09:35:45Z
2019-08-12T07:38:28Z,42.805,6.029,13.2974,4.60006,2469.89,2019-8-12T09:38:48Z
2019-08-12T07:41:31Z,42.805,6.029,13.3001,4.60003,2469.844,2019-8-12T09:41:51Z
2019-08-12T07:44:34Z,42.805,6.029,13.2978,4.59994,2469.867,2019-8-12T09:44:55Z
2019-08-12T07:47:37Z,42.805,6.029,13.2993,4.59996,2469.853,2019-8-12T09:47:58Z
2019-08-12T07:50:41Z,42.805,6.029,13.2996,4.60001,2469.867,2019-8-12T09:51:01Z
2019-08-12T07:53:44Z,42.805,6.029,13.3011,4.60007,2469.867,2019-8-12T09:54:04Z
2019-08-12T07:56:47Z,42.805,6.029,13.2991,4.59999,2469.876,2019-8-12T09:57:07Z
2019-08-12T07:59:50Z,42.805,6.029,13.2988,4.60034,2469.876,2019-8-12T10:00:11Z
2019-08-12T08:02:53Z,42.805,6.029,13.3000,4.59991,2469.853,2019-8-12T10:03:14Z
2019-08-12T08:05:57Z,42.805,6.029,13.2991,4.59993,2469.853,2019-8-12T10:06:17Z
2019-08-12T08:09:00Z,42.805,6.029,13.2995,4.59989,2469.853,2019-8-12T10:09:20Z
2019-08-12T08:12:03Z,42.805,6.029,13.3018,4.59979,2469.83,2019-8-12T10:12:23Z
2019-08-12T08:15:06Z,42.805,6.029,13.2992,4.59997,2469.844,2019-8-12T10:15:27Z
2019-08-12T08:18:09Z,42.805,6.029,13.3004,4.60005,2469.83,2019-8-12T10:18:30Z
2019-08-12T08:21:13Z,42.805,6.029,13.3006,4.59973,2469.876,2019-8-12T10:21:33Z
2019-08-12T08:24:16Z,42.805,6.029,13.2993,4.59985,2469.876,2019-8-12T10:24:36Z
2019-08-12T08:27:19Z,42.805,6.029,13.3019,4.59976,2469.83,2019-8-12T10:27:39Z
2019-08-12T08:30:22Z,42.805,6.029,13.2979,4.59998,2469.844,2019-8-12T10:30:43Z
2019-08-12T08:33:25Z,42.805,6.029,13.2983,4.59988,2469.89,2019-8-12T10:33:46Z
2019-08-12T08:36:29Z,42.805,6.029,13.2979,4.60006,2469.867,2019-8-12T10:36:49Z
2019-08-12T08:39:32Z,42.805,6.029,13.2990,4.60001,2469.853,2019-8-12T10:39:52Z
2019-08-12T08:42:35Z,42.805,6.029,13.3009,4.59991,2469.853,2019-8-12T10:42:55Z
2019-08-12T08:45:38Z,42.805,6.029,13.2998,4.60033,2469.844,2019-8-12T10:45:59Z
2019-08-12T08:48:41Z,42.805,6.029,13.2986,4.60003,2469.844,2019-8-12T10:49:02Z
2019-08-12T08:51:45Z,42.805,6.029,13.2991,4.59986,2469.844,2019-8-12T10:52:05Z
2019-08-12T08:54:48Z,42.805,6.029,13.2998,4.59985,2469.867,2019-8-12T10:55:08Z
2019-08-12T08:57:51Z,42.805,6.029,13.2993,4.59983,2469.867,2019-8-12T10:58:11Z
2019-08-12T09:00:54Z,42.805,6.029,13.3014,4.59994,2469.844,2019-8-12T11:01:15Z
2019-08-12T09:03:57Z,42.805,6.029,13.3018,4.59993,2469.844,2019-8-12T11:04:18Z
2019-08-12T09:07:01Z,42.805,6.029,13.3006,4.60006,2469.853,2019-8-12T11:07:21Z
2019-08-12T09:10:04Z,42.805,6.029,13.3018,4.60022,2469.83,2019-8-12T11:10:24Z
2019-08-12T09:13:07Z,42.805,6.029,13.2977,4.60043,2469.821,2019-8-12T11:13:27Z
2019-08-12T09:16:10Z,42.805,6.029,13.3004,4.59997,2469.806,2019-8-12T11:16:31Z
2019-08-12T09:19:13Z,42.805,6.029,13.3006,4.59978,2469.83,2019-8-12T11:19:34Z
2019-08-12T09:22:17Z,42.805,6.029,13.3005,4.59997,2469.853,2019-8-12T11:22:37Z
2019-08-12T09:25:20Z,42.805,6.029,13.3014,4.59996,2469.83,2019-8-12T11:25:40Z
2019-08-12T09:28:23Z,42.805,6.029,13.3019,4.59979,2469.83,2019-8-12T11:28:44Z
2019-08-12T09:31:26Z,42.805,6.029,13.3034,4.59983,2469.806,2019-8-12T11:31:47Z
2019-08-12T09:34:30Z,42.805,6.029,13.2999,4.60031,2469.821,2019-8-12T11:34:50Z
2019-08-12T09:37:33Z,42.805,6.029,13.3017,4.60009,2469.806,2019-8-12T11:37:54Z
2019-08-12T09:40:36Z,42.805,6.029,13.2982,4.60011,2469.806,2019-8-12T11:40:57Z
2019-08-12T09:43:40Z,42.805,6.029,13.3005,4.59990,2469.806,2019-8-12T11:44:00Z
2019-08-12T09:46:43Z,42.805,6.029,13.3009,4.60000,2469.797,2019-8-12T11:47:03Z
2019-08-12T09:49:46Z,42.805,6.029,13.2991,4.60055,2469.783,2019-8-12T11:50:07Z
2019-08-12T09:52:49Z,42.805,6.029,13.2988,4.60029,2469.844,2019-8-12T11:53:10Z
2019-08-12T09:55:53Z,42.805,6.029,13.3008,4.60004,2469.783,2019-8-12T11:56:13Z
2019-08-12T09:58:56Z,42.805,6.029,13.3010,4.60032,2469.783,2019-8-12T11:59:17Z
2019-08-12T10:02:00Z,42.805,6.029,13.2996,4.60026,2469.806,2019-8-12T12:02:20Z
2019-08-12T10:05:03Z,42.805,6.029,13.3006,4.60044,2469.797,2019-8-12T12:05:23Z
2019-08-12T10:08:06Z,42.805,6.029,13.3014,4.60008,2469.783,2019-8-12T12:08:27Z
2019-08-12T10:11:09Z,42.805,6.029,13.3000,4.60029,2469.821,2019-8-12T12:11:30Z
2019-08-12T10:14:13Z,42.805,6.029,13.2995,4.60045,2469.806,2019-8-12T12:14:33Z
2019-08-12T10:17:16Z,42.805,6.029,13.3019,4.59998,2469.783,2019-8-12T12:17:36Z
2019-08-12T10:20:19Z,42.805,6.029,13.3004,4.59990,2469.773,2019-8-12T12:20:40Z
2019-08-12T10:23:23Z,42.805,6.029,13.2968,4.59977,2469.797,2019-8-12T12:23:43Z
2019-08-12T10:26:26Z,42.805,6.029,13.2964,4.59972,2469.821,2019-8-12T12:26:46Z
2019-08-12T10:29:29Z,42.805,6.029,13.2967,4.59981,2469.806,2019-8-12T12:29:50Z
2019-08-12T10:32:33Z,42.805,6.029,13.2986,4.59992,2469.806,2019-8-12T12:32:53Z
2019-08-12T10:35:36Z,42.805,6.029,13.2994,4.60022,2469.783,2019-8-12T12:35:56Z
2019-08-12T10:38:39Z,42.805,6.029,13.2998,4.60048,2469.783,2019-8-12T12:39:00Z
2019-08-12T10:41:42Z,42.805,6.029,13.3005,4.60074,2469.783,2019-8-12T12:42:03Z
2019-08-12T10:44:46Z,42.805,6.029,13.3000,4.60038,2469.783,2019-8-12T12:45:06Z
2019-08-12T10:47:49Z,42.805,6.029,13.3006,4.60016,2469.773,2019-8-12T12:48:09Z
2019-08-12T10:50:52Z,42.805,6.029,13.3007,4.60013,2469.773,2019-8-12T12:51:13Z
2019-08-12T10:53:56Z,42.805,6.029,13.3019,4.59979,2469.806,2019-8-12T12:54:16Z
2019-08-12T10:56:59Z,42.805,6.029,13.2965,4.59982,2469.783,2019-8-12T12:57:19Z
2019-08-12T11:00:02Z,42.805,6.029,13.3026,4.59978,2469.76,2019-8-12T13:00:23Z
2019-08-12T11:03:05Z,42.805,6.029,13.2996,4.59996,2469.797,2019-8-12T13:03:26Z
2019-08-12T11:06:09Z,42.805,6.029,13.3008,4.59998,2469.783,2019-8-12T13:06:29Z
2019-08-12T11:09:12Z,42.805,6.029,13.3015,4.59988,2469.773,2019-8-12T13:09:32Z
2019-08-12T11:12:15Z,42.805,6.029,13.3000,4.59988,2469.783,2019-8-12T13:12:36Z
2019-08-12T11:15:19Z,42.805,6.029,13.2993,4.59999,2469.797,2019-8-12T13:15:39Z
2019-08-12T11:18:22Z,42.805,6.029,13.2996,4.60020,2469.773,2019-8-12T13:18:43Z
2019-08-12T11:21:25Z,42.805,6.029,13.3004,4.60006,2469.797,2019-8-12T13:21:46Z
2019-08-12T11:24:29Z,42.805,6.029,13.2996,4.60035,2469.797,2019-8-12T13:24:49Z
2019-08-12T11:27:32Z,42.805,6.029,13.2987,4.60036,2469.783,2019-8-12T13:27:52Z
2019-08-12T11:30:35Z,42.805,6.029,13.3003,4.60013,2469.783,2019-8-12T13:30:56Z
2019-08-12T11:33:39Z,42.805,6.029,13.2981,4.60051,2469.76,2019-8-12T13:33:59Z
2019-08-12T11:36:42Z,42.805,6.029,13.3003,4.60016,2469.773,2019-8-12T13:37:02Z
2019-08-12T11:39:45Z,42.805,6.029,13.3001,4.60024,2469.76,2019-8-12T13:40:06Z
2019-08-12T11:42:48Z,42.805,6.029,13.3005,4.59998,2469.76,2019-8-12T13:43:09Z
2019-08-12T11:45:52Z,42.805,6.029,13.3006,4.60033,2469.821,2019-8-12T13:46:12Z
2019-08-12T11:48:55Z,42.805,6.029,13.3005,4.60015,2469.783,2019-8-12T13:49:16Z
2019-08-12T11:51:58Z,42.805,6.029,13.2991,4.59997,2469.806,2019-8-12T13:52:19Z
2019-08-12T11:55:02Z,42.805,6.029,13.2996,4.60029,2469.76,2019-8-12T13:55:22Z
2019-08-12T11:58:05Z,42.805,6.029,13.3000,4.60003,2469.76,2019-8-12T13:58:25Z
2019-08-12T12:01:08Z,42.805,6.029,13.2998,4.59997,2469.76,2019-8-12T14:01:29Z
2019-08-12T12:04:12Z,42.805,6.029,13.2982,4.60042,2469.783,2019-8-12T14:04:32Z
2019-08-12T12:07:15Z,42.805,6.029,13.2994,4.60062,2469.76,2019-8-12T14:07:35Z
2019-08-12T12:10:18Z,42.805,6.029,13.2986,4.60033,2469.783,2019-8-12T14:10:39Z
2019-08-12T12:13:22Z,42.805,6.029,13.2986,4.60033,2469.76,2019-8-12T14:13:42Z
2019-08-12T12:16:25Z,42.805,6.029,13.2982,4.60033,2469.76,2019-8-12T14:16:45Z
2019-08-12T12:19:28Z,42.805,6.029,13.2990,4.60049,2469.783,2019-8-12T14:19:49Z
2019-08-12T12:22:32Z,42.805,6.029,13.2974,4.60017,2469.76,2019-8-12T14:22:52Z
2019-08-12T12:25:35Z,42.805,6.029,13.2973,4.60024,2469.76,2019-8-12T14:25:55Z
2019-08-12T12:28:38Z,42.805,6.029,13.2979,4.60013,2469.821,2019-8-12T14:28:59Z
2019-08-12T12:31:42Z,42.805,6.029,13.2979,4.60041,2469.806,2019-8-12T14:32:02Z
2019-08-12T12:34:45Z,42.805,6.029,13.2993,4.60042,2469.783,2019-8-12T14:35:05Z
2019-08-12T12:37:48Z,42.805,6.029,13.2983,4.60030,2469.821,2019-8-12T14:38:09Z
2019-08-12T12:40:51Z,42.805,6.029,13.2974,4.60026,2469.83,2019-8-12T14:41:12Z
2019-08-12T12:43:55Z,42.805,6.029,13.2996,4.60031,2469.797,2019-8-12T14:44:15Z
2019-08-12T12:46:58Z,42.805,6.029,13.2982,4.60017,2469.783,2019-8-12T14:47:19Z
2019-08-12T12:50:01Z,42.805,6.029,13.2969,4.60014,2469.797,2019-8-12T14:50:22Z
2019-08-12T12:53:05Z,42.805,6.029,13.2982,4.60032,2469.806,2019-8-12T14:53:25Z
2019-08-12T12:56:08Z,42.805,6.029,13.2975,4.60025,2469.76,2019-8-12T14:56:29Z
2019-08-12T12:59:11Z,42.805,6.029,13.2974,4.60007,2469.783,2019-8-12T14:59:32Z
2019-08-12T13:02:15Z,42.805,6.029,13.2998,4.60019,2469.806,2019-8-12T15:02:35Z
2019-08-12T13:05:18Z,42.805,6.029,13.2976,4.59997,2469.821,2019-8-12T15:05:38Z
2019-08-12T13:08:21Z,42.805,6.029,13.2981,4.60024,2469.797,2019-8-12T15:08:42Z
2019-08-12T13:11:25Z,42.805,6.029,13.2973,4.60008,2469.806,2019-8-12T15:11:45Z
2019-08-12T13:14:28Z,42.805,6.029,13.2975,4.59998,2469.806,2019-8-12T15:14:48Z
2019-08-12T13:17:31Z,42.805,6.029,13.2981,4.60003,2469.844,2019-8-12T15:17:52Z
2019-08-12T13:20:34Z,42.805,6.029,13.2978,4.60012,2469.783,2019-8-12T15:20:55Z
2019-08-12T13:23:38Z,42.805,6.029,13.2971,4.60014,2469.76,2019-8-12T15:23:58Z
2019-08-12T13:26:41Z,42.805,6.029,13.2976,4.60016,2469.806,2019-8-12T15:27:02Z
2019-08-12T13:29:44Z,42.805,6.029,13.2976,4.60006,2469.797,2019-8-12T15:30:05Z
2019-08-12T13:32:48Z,42.805,6.029,13.2976,4.60019,2469.806,2019-8-12T15:33:08Z
2019-08-12T13:35:51Z,42.805,6.029,13.2980,4.60001,2469.844,2019-8-12T15:36:11Z
2019-08-12T13:38:54Z,42.805,6.029,13.2976,4.59994,2469.844,2019-8-12T15:39:15Z
2019-08-12T13:41:58Z,42.805,6.029,13.2968,4.59999,2469.844,2019-8-12T15:42:18Z
2019-08-12T13:45:01Z,42.805,6.029,13.2971,4.59997,2469.853,2019-8-12T15:45:21Z
2019-08-12T13:48:04Z,42.805,6.029,13.2974,4.59998,2469.83,2019-8-12T15:48:25Z
2019-08-12T13:51:08Z,42.805,6.029,13.2975,4.59994,2469.83,2019-8-12T15:51:28Z
2019-08-12T13:54:11Z,42.805,6.029,13.2969,4.59990,2469.806,2019-8-12T15:54:31Z
2019-08-12T13:57:14Z,42.805,6.029,13.2970,4.59988,2469.83,2019-8-12T15:57:35Z
2019-08-12T14:00:17Z,42.805,6.029,13.2974,4.59988,2469.867,2019-8-12T16:00:38Z
2019-08-12T14:03:21Z,42.805,6.029,13.2981,4.60013,2469.876,2019-8-12T16:03:41Z
2019-08-12T14:06:24Z,42.805,6.029,13.2974,4.60023,2469.867,2019-8-12T16:06:45Z
2019-08-12T14:09:27Z,42.805,6.029,13.2975,4.60006,2469.867,2019-8-12T16:09:48Z
2019-08-12T14:12:31Z,42.805,6.029,13.2979,4.60001,2469.844,2019-8-12T16:12:51Z
2019-08-12T14:15:34Z,42.805,6.029,13.2968,4.59998,2469.83,2019-8-12T16:15:55Z
2019-08-12T14:18:37Z,42.805,6.029,13.2972,4.59986,2469.844,2019-8-12T16:18:58Z
2019-08-12T14:21:41Z,42.805,6.029,13.2969,4.59986,2469.83,2019-8-12T16:22:01Z
2019-08-12T14:24:44Z,42.805,6.029,13.2972,4.59993,2469.853,2019-8-12T16:25:04Z
2019-08-12T14:27:47Z,42.805,6.029,13.2979,4.59991,2469.853,2019-8-12T16:28:08Z
2019-08-12T14:30:51Z,42.805,6.029,13.2967,4.59986,2469.853,2019-8-12T16:31:11Z
2019-08-12T14:33:54Z,42.805,6.029,13.2971,4.59988,2469.83,2019-8-12T16:34:14Z
2019-08-12T14:36:57Z,42.805,6.029,13.2974,4.59993,2469.89,2019-8-12T16:37:18Z
2019-08-12T14:40:01Z,42.805,6.029,13.2968,4.59981,2469.853,2019-8-12T16:40:21Z
2019-08-12T14:43:04Z,42.805,6.029,13.2966,4.59978,2469.876,2019-8-12T16:43:24Z
2019-08-12T14:46:07Z,42.805,6.029,13.2965,4.59986,2469.853,2019-8-12T16:46:28Z
2019-08-12T14:49:10Z,42.805,6.029,13.2971,4.59989,2469.867,2019-8-12T16:49:31Z
2019-08-12T14:52:14Z,42.805,6.029,13.2980,4.60001,2469.876,2019-8-12T16:52:34Z
2019-08-12T14:55:17Z,42.805,6.029,13.2972,4.59990,2469.89,2019-8-12T16:55:38Z
2019-08-12T14:58:20Z,42.805,6.029,13.2976,4.60018,2469.876,2019-8-12T16:58:41Z
2019-08-12T15:01:24Z,42.805,6.029,13.2968,4.59994,2469.876,2019-8-12T17:01:44Z
2019-08-12T15:04:27Z,42.805,6.029,13.2975,4.59995,2469.876,2019-8-12T17:04:47Z
2019-08-12T15:07:30Z,42.805,6.029,13.2976,4.59988,2469.914,2019-8-12T17:07:51Z
2019-08-12T15:10:34Z,42.805,6.029,13.2970,4.60006,2469.853,2019-8-12T17:10:54Z
2019-08-12T15:13:37Z,42.805,6.029,13.2979,4.60005,2469.876,2019-8-12T17:13:57Z